DW3835 Weather Reports


Display with metric or nautical units.
time (UTC)temp
F
wind
direction
speed
MPH
gust
MPH
rain 1hr
in
rain 24hr
in
rain mn
in
humidity
%
barometer
mb
20260510195916 68 174 1.0 7.0 0.00 0.00 0.00 72 1013.3
20260510194845 66 161 1.0 4.0 0.00 0.00 0.00 73 1013.5
20260510193904 66 222 1.0 5.0 0.00 0.00 0.00 75 1013.5
20260510192928 66 103 1.0 7.0 0.00 0.00 0.00 76 1013.7
20260510191904 64 107 1.0 7.0 0.00 0.00 0.00 76 1013.7
20260510190907 63 134 1.0 4.0 0.00 0.00 0.00 79 1013.8
20260510184740 62 167 1.0 4.0 0.00 0.00 0.00 83 1014.0
20260510183727 60 165 2.0 5.0 0.00 0.00 0.00 83 1014.1
20260510182750 60 125 1.0 6.0 0.00 0.00 0.00 85 1014.0
20260510180646 59 131 1.0 6.0 0.00 0.00 0.00 85 1014.0
20260510175638 58 161 1.0 5.0 0.00 0.00 0.00 85 1014.0
20260510174650 58 174 1.0 4.0 0.00 0.00 0.00 85 1014.1
20260510173640 58 172 1.0 4.0 0.00 0.00 0.00 86 1014.0
20260510172609 57 161 0.0 5.0 0.00 0.00 0.00 86 1013.9
20260510171603 57 186 0.0 5.0 0.00 0.00 0.00 87 1013.9
20260510170535 57 162 1.0 3.0 0.00 0.00 0.00 88 1013.9
20260510165543 57 205 0.0 3.0 0.00 0.00 0.00 88 1013.9
20260510164558 57 144 0.0 2.0 0.00 0.00 0.00 88 1013.9
20260510163524 56 179 0.0 3.0 0.00 0.00 0.00 89 1013.8
20260510162510 56 117 0.0 3.0 0.00 0.00 0.00 89 1013.8
20260510161504 55 150 0.0 3.0 0.00 0.00 0.00 89 1013.7
20260510160453 55 109 0.0 3.0 0.00 0.00 0.00 90 1013.6
20260510155515 55 111 0.0 4.0 0.00 0.00 0.00 90 1013.7
20260510154441 55 178 0.0 4.0 0.00 0.00 0.00 90 1013.6
20260510152325 54 191 0.0 3.0 0.00 0.00 0.00 90 1013.6
20260510151300 54 186 0.0 3.0 0.00 0.00 0.00 90 1013.5
20260510150245 54 164 0.0 3.0 0.00 0.00 0.00 91 1013.4
20260510145237 54 159 0.0 3.0 0.00 0.00 0.00 91 1013.3
20260510144230 54 199 0.0 3.0 0.00 0.00 0.00 91 1013.3
20260510143232 53 192 0.0 9.0 0.00 0.00 0.00 91 1013.3
20260510142232 53 189 0.0 9.0 0.00 0.00 0.00 91 1013.3
20260510141253 53 195 0.0 4.0 0.00 0.00 0.00 91 1013.1
20260510140249 53 148 1.0 4.0 0.00 0.00 0.00 91 1012.9
20260510135224 53 193 0.0 5.0 0.00 0.00 0.00 91 1012.8
20260510134224 53 182 1.0 5.0 0.00 0.00 0.00 91 1012.7
20260510133235 53 182 0.0 5.0 0.00 0.00 0.00 91 1012.7
20260510132243 53 188 0.0 5.0 0.00 0.00 0.00 91 1012.6
20260510130143 53 178 0.0 3.0 0.00 0.00 0.00 91 1012.6
20260510123956 53 126 0.0 2.0 0.00 0.00 0.00 91 1012.6
20260510122951 53 207 0.0 3.0 0.00 0.00 0.00 91 1012.6
20260510122007 53 181 0.0 3.0 0.00 0.00 0.00 91 1012.6
20260510120941 53 184 0.0 1.0 0.00 0.00 0.00 91 1012.7
20260510115920 53 178 0.0 2.0 0.00 0.00 0.00 91 1012.6
20260510114925 53 157 0.0 3.0 0.00 0.00 0.00 91 1012.7
20260510113945 53 163 0.0 3.0 0.00 0.00 0.00 91 1012.6
20260510112952 53 203 0.0 3.0 0.00 0.00 0.00 91 1012.6
20260510112003 53 163 0.0 2.0 0.00 0.00 0.00 91 1012.7
20260510110940 53 180 1.0 4.0 0.00 0.00 0.00 91 1012.7
20260510105937 53 135 1.0 4.0 0.00 0.00 0.00 91 1012.7
20260510104921 53 174 0.0 4.0 0.00 0.00 0.00 91 1012.6
20260510103853 53 165 1.0 4.0 0.00 0.00 0.00 91 1012.7
20260510102855 53 182 0.0 2.0 0.00 0.00 0.00 91 1012.7
20260510100725 53 197 1.0 3.0 0.00 0.00 0.00 91 1012.7
20260510095740 53 162 0.0 3.0 0.00 0.00 0.00 91 1012.7
20260510094730 53 123 0.0 4.0 0.00 0.00 0.00 91 1012.8
20260510093726 53 182 0.0 5.0 0.00 0.00 0.00 91 1012.8
20260510092748 53 177 1.0 5.0 0.00 0.00 0.00 91 1012.8
20260510091724 53 201 0.0 6.0 0.00 0.00 0.00 90 1012.7
20260510083323 54 103 1.0 4.0 0.00 0.00 0.00 90 1012.8
20260510082325 54 165 0.0 4.0 0.00 0.00 0.00 89 1012.7
20260510081315 54 180 0.0 3.0 0.00 0.00 0.00 89 1012.7
20260510080325 54 182 0.0 3.0 0.00 0.00 0.00 89 1012.8
20260510075326 54 173 0.0 4.0 0.00 0.00 0.00 89 1012.8
20260510074311 54 184 1.0 4.0 0.00 0.00 0.00 89 1012.8
20260510073328 54 165 0.0 6.0 0.00 0.00 0.00 89 1012.9
20260510072310 54 180 1.0 6.0 0.00 0.00 0.00 89 1013.0
20260510071247 54 166 1.0 4.0 0.00 0.00 0.00 88 1013.0
20260510070306 55 173 1.0 4.0 0.00 0.00 0.00 88 1012.9
20260510062947 55 145 0.0 4.0 0.00 0.00 0.00 87 1012.9
20260510061922 55 163 0.0 4.0 0.00 0.00 0.00 88 1013.0
20260510060933 55 180 0.0 3.0 0.00 0.00 0.00 88 1012.8
20260510055943 55 152 1.0 6.0 0.00 0.00 0.00 88 1013.0
20260510054912 55 97 1.0 6.0 0.00 0.00 0.00 87 1012.8
20260510053906 55 150 1.0 4.0 0.00 0.00 0.00 88 1012.9
20260510052924 55 170 1.0 5.0 0.00 0.00 0.00 87 1012.9
20260510051943 55 119 1.0 8.0 0.00 0.00 0.00 87 1013.0
20260510045754 56 170 0.0 0.0 0.00 0.00 0.00 86 1013.0
20260510044722 56 167 0.0 3.0 0.00 0.00 0.00 86 1013.0
20260510042622 56 182 0.0 3.0 0.00 0.00 0.00 85 1012.8
20260510041624 56 144 0.0 3.0 0.00 0.00 0.00 85 1012.6
20260510040643 56 218 0.0 3.0 0.00 0.00 0.00 85 1012.6
20260510035650 56 124 0.0 3.0 0.00 0.00 0.00 85 1012.6
20260510034616 57 191 0.0 3.0 0.00 0.00 0.00 84 1012.5
20260510033602 57 79 0.0 3.0 0.00 0.00 0.00 83 1012.3
20260510031508 58 165 0.0 3.0 0.00 0.00 0.00 81 1012.2
20260510025321 60 111 0.0 4.0 0.00 0.00 0.00 80 1012.1
20260510024339 60 119 0.0 4.0 0.00 0.00 0.00 80 1011.9
20260510023326 61 147 0.0 5.0 0.00 0.00 0.00 79 1011.8
20260510014956 64 167 0.0 4.0 0.00 0.00 0.00 75 1011.8
20260510012909 65 162 0.0 4.0 0.00 0.00 0.00 74 1011.8
20260510011853 65 169 0.0 4.0 0.00 0.00 0.00 73 1011.8
20260510010847 66 183 0.0 3.0 0.00 0.00 0.00 71 1011.8
20260510004737 68 147 0.0 2.0 0.00 0.00 0.00 69 1011.8
20260510003711 68 184 0.0 4.0 0.00 0.00 0.00 67 1011.8
20260510002659 68 244 0.0 4.0 0.00 0.00 0.00 67 1011.9
20260510001700 69 132 0.0 5.0 0.00 0.00 0.00 67 1011.8
20260510000634 70 276 1.0 5.0 0.00 0.00 0.00 65 1011.8
20260509235625 69 166 0.0 4.0 0.00 0.00 0.00 64 1011.9
20260509234612 69 163 1.0 5.0 0.00 0.00 0.00 64 1012.0
20260509233635 70 344 1.0 6.0 0.00 0.00 0.00 63 1012.0
20260509232651 70 184 1.0 6.0 0.00 0.00 0.00 63 1012.0
20260509231712 71 182 1.0 6.0 0.00 0.00 0.00 63 1012.2
20260509225538 72 142 0.0 7.0 0.00 0.00 0.00 61 1012.1
20260509224522 71 195 1.0 7.0 0.00 0.00 0.00 61 1012.2
20260509222332 72 192 1.0 4.0 0.00 0.00 0.00 60 1012.5
20260509221325 73 175 1.0 7.0 0.00 0.00 0.00 63 1012.6
20260509220257 72 179 1.0 7.0 0.00 0.00 0.00 62 1012.7
20260509214048 74 167 2.0 8.0 0.00 0.00 0.00 60 1012.8
20260509213100 74 143 2.0 7.0 0.00 0.00 0.00 60 1012.8
20260509212101 74 167 1.0 6.0 0.00 0.00 0.00 62 1013.0
20260509211043 73 148 2.0 6.0 0.00 0.00 0.00 61 1013.1
20260509210048 73 175 2.0 7.0 0.00 0.00 0.00 61 1013.1
20260509205033 73 159 2.0 7.0 0.00 0.00 0.00 63 1013.1
20260509204003 74 179 2.0 6.0 0.00 0.00 0.00 60 1013.1
20260509202932 75 169 1.0 5.0 0.00 0.00 0.00 61 1013.1
20260509201926 74 142 1.0 6.0 0.00 0.00 0.00 64 1013.2
20260509200923 73 163 1.0 6.0 0.00 0.00 0.00 62 1013.3